This is the latest recevied weather packets stored in our database for station/object W5SDC. If no packets are shown the sender has not sent any weather packets the latest 10 day(s).
| Time | Temp. | Humidity | Pressure | Rain* | Wind** | Luminosity | Snow |
|---|---|---|---|---|---|---|---|
| 1777628127 | 15° C | 99% | 1012.9 hPa | 0.76 mm | - | - | - |
| 1777626350 | 15° C | 99% | 1014 hPa | 0.76 mm | - | - | - |
| 1777626018 | 15° C | 99% | 1013.6 hPa | 0.76 mm | - | - | - |
| 1777625119 | 15° C | 99% | 1013.7 hPa | 0.76 mm | - | - | - |
| 1777621525 | 15.56° C | 99% | 1015.1 hPa | 0 mm | - | - | - |
| 1777620332 | 15.56° C | 99% | 1015.2 hPa | 0 mm | - | - | - |
| 1777620021 | 15.56° C | 99% | 1015.1 hPa | 0 mm | - | - | - |
| 1777616719 | 15.56° C | 99% | 1014 hPa | 0.25 mm | - | - | - |
| 1777614922 | 15.56° C | 99% | 1014 hPa | 0.25 mm | - | - | - |
| 1777614317 | 16.11° C | 99% | 1014.6 hPa | 0.25 mm | - | - | - |
| 1777612831 | 16.67° C | 99% | 1014.6 hPa | 0.25 mm | - | - | - |
| 1777612226 | 16.67° C | 99% | 1014.7 hPa | 0.25 mm | - | - | - |
| 1777611952 | 16.67° C | 99% | 1014.7 hPa | 0.25 mm | - | - | - |
| 1777611347 | 16.67° C | 99% | 1014.8 hPa | 0.51 mm | - | - | - |
| 1777611015 | 16.67° C | 99% | 1014.9 hPa | 0.51 mm | - | - | - |
| 1777608924 | 16.67° C | 99% | 1014.9 hPa | 0.76 mm | - | - | - |
| 1777606815 | 17.22° C | 99% | 1013.8 hPa | 5.84 mm | - | - | - |
| 1777605917 | 17.22° C | 99% | 1014.5 hPa | 5.33 mm | - | - | - |
| 1777605018 | 17.22° C | 99% | 1014.3 hPa | 5.08 mm | - | - | - |
| 1777604431 | 17.22° C | 99% | 1014.9 hPa | 4.06 mm | - | - | - |
| 1777602927 | 17.22° C | 99% | 1014.4 hPa | 0 mm | - | - | - |
| 1777599626 | 17.78° C | 99% | 1013.1 hPa | 0 mm | - | - | - |
| 1777599332 | 17.78° C | 99% | 1012.7 hPa | 0 mm | - | - | - |
| 1777599020 | 17.78° C | 99% | 1012.7 hPa | 0 mm | - | - | - |
| 1777597848 | 17.78° C | 99% | 1012.4 hPa | 0 mm | - | - | - |
* Rain latest hour (hover to see other rain measurements)
** Current wind speed in m/s (hover to see current wind gust speed)